Location: Unspecified
(0.0000°N, 0.0000°E)
Time: 23:33:32
(UTC+02:00)

Daily predictions for brighter satellites

Satellite Brightness Start Highest point End
(mag) Time Altitude Azimuth Time Altitude Azimuth Time Altitude Azimuth
ARIANE 5 R/B 4.2 19:42:16 10° W 19:46:08 77° S 20:13:48 10° E
ARIANE 5 R/B 4.2 19:42:15 10° W 19:46:09 77° S 20:13:48 10° E
ATLAS 2AS CENTAUR R/B 4.0 20:17:41 10° SSE 20:21:59 17° ESE 20:26:29 10° ENE
Meteor 2-6 Rocket 4.2 20:20:10 10° N 20:25:52 74° E 20:31:25 10° S
Cosmos 1634 Rocket 4.3 20:21:14 10° N 20:27:30 76° W 20:33:46 10° S
Cosmos 2227 Rocket 3.9 20:28:25 10° NE 20:30:40 12° ENE 20:32:54 10° E
Cosmos 1908 Rocket 3.6 20:26:43 10° S 20:31:06 58° E 20:35:25 10° NNE
Cosmos 1697 Rocket 3.8 20:26:29 10° SSW 20:31:52 49° WNW 20:37:15 10° N
CZ-4 R/B 3.4 20:28:34 10° SSW 20:32:01 30° WSW 20:35:26 10° NW
SWIFT 2.4 20:28:02 10° WNW 20:32:18 89° SW 20:36:35 10° ESE
Cosmos 2279 Rocket 4.0 20:27:17 10° N 20:33:22 62° E 20:39:28 10° SSE
Meteor 1-14 Rocket 4.2 20:36:58 10° S 20:42:49 73° E 20:48:29 10° N
Cosmos 1452 Rocket 3.8 20:41:00 10° S 20:45:59 44° ESE 20:50:59 10° NNE
Meteor 1-25 Rocket 4.3 20:40:45 10° S 20:46:28 59° E 20:52:10 10° NNE
Cosmos 1346 3.4 20:45:31 10° NNE 20:47:57 33° E 20:50:18 11° SSE
SPOT 3 Rocket 3.8 20:43:25 10° S 20:48:37 73° WSW 20:53:46 10° NNW
Mugunghwa Rocket 4.3 20:44:05 10° NW 20:50:10 52° NNE 20:55:11 16° E
Cosmos 2360 4.5 20:46:46 10° SSW 20:52:29 75° WNW 20:58:09 10° N
ALOS 2.4 20:49:38 10° SSE 20:54:11 53° ENE 20:58:43 10° N
Cosmos 1633 3.5 20:52:52 10° SSE 20:55:54 26° E 20:58:56 10° NE
Cosmos 2026 Rocket 4.2 20:51:22 10° SSE 20:57:19 48° E 21:03:19 10° NNE
Delta 7925 Rocket 3.6 20:53:30 10° WNW 20:59:33 71° NNE 21:02:50 22° ESE
Cosmos 1782 Rocket 3.4 20:57:17 10° S 21:01:40 79° E 21:06:00 10° N
Cosmos 1437 2.6 21:00:04 10° N 21:03:16 80° E 21:06:31 10° S
H-2A R/B 3.6 21:03:41 25° ESE 21:04:57 30° E 21:08:22 10° NNE
Centaur D-1AR AC-39 4.1 21:03:21 10° S 21:06:19 16° SE 21:07:14 16° SE
NOSS 2-3 (C) 3.6 21:03:36 10° SSW 21:08:25 73° ESE 21:12:55 10° NNE
Cosmos 2219 3.9 21:03:40 10° NNW 21:09:15 56° WSW 21:14:49 10° S
Cosmos 921 Rocket 4.1 21:10:40 10° SSW 21:14:44 44° W 21:18:44 10° N
SJ-6B 2.9 21:15:31 33° SE 21:16:55 50° ENE 21:20:45 10° N
Gbstr 26 Del rocket 2.9 21:14:12 10° NW 21:18:23 68° SW 21:20:10 30° SSE
Ariane 42L R/B 2.7 21:16:22 10° W 21:19:16 86° N 21:22:58 26° E
Cosmos 2297 Rocket 2.8 21:15:44 10° N 21:20:47 34° ENE 21:21:38 33° E
Cosmos 2322 Rocket 2.1 21:16:53 10° S 21:22:32 69° ESE 21:28:11 10° NNE
Spelda 2.8 21:20:22 10° W 21:23:23 73° S 21:26:02 33° ESE
Cosmos 1378 Rocket 3.6 21:19:28 10° N 21:23:44 51° E 21:24:33 44° SE
APEX 2.5 21:22:25 10° NNW 21:25:00 73° WNW 21:25:00 73° WNW
HJ-1C 3.6 21:26:00 54° NE 21:26:00 54° NE 21:28:55 10° N
FALCON 9 R/B 0.8 21:25:23 10° SW 21:27:51 82° SE 21:28:15 67° ENE
GPS 2-14 Rocket1 4.0 21:25:48 10° W 21:29:13 32° NNW 21:30:36 24° NNE
FENGYUN 3A 4.1 21:25:22 10° S 21:30:41 61° WSW 21:35:59 10° NNW
SL-16 R/B 2.1 21:25:55 10° SSW 21:31:36 86° ESE 21:37:15 10° NNE
Delta 198 4.4 21:25:22 10° SW 21:32:06 60° SSE 21:33:57 43° E
FengYun 1-2 T 4.1 21:30:21 13° SSE 21:35:19 86° ENE 21:40:56 10° NNW
Ariane H10+ 3.6 21:24:27 10° W 21:38:01 51° N 21:39:22 37° NE
CZ-3 Stage 3 3.0 21:37:14 10° WSW 21:37:50 15° WSW 21:37:50 15° WSW
USA 267 3.9 21:51:30 36° NE 21:51:30 36° NE 21:57:06 10° N
ASTRO E2 3.6 21:47:35 10° WSW 21:51:08 45° NW 21:51:08 45° NW
Lacrosse 5 3.4 21:53:14 10° SW 21:57:47 34° WNW 22:02:21 10° N
ARIANE 5 R/B 3.6 21:59:33 10° W 22:03:48 88° N 22:07:12 49° E
ARIANE 5 R/B 3.6 21:59:34 10° W 22:03:48 88° N 22:07:13 49° E
ARIANE 5 R/B 3.6 21:59:33 10° W 22:03:48 88° N 22:07:13 49° E
ARIANE 5 R/B 3.6 21:59:33 10° W 22:03:48 88° N 22:07:11 49° E
Cosmos 2082 3.9 22:02:42 10° NNW 22:08:20 67° WSW 22:08:30 67° WSW
ATLAS 2AS CENTAUR R/B 3.5 22:05:50 10° SW 22:12:28 51° WNW 22:19:46 10° N
Cosmos 2227 Rocket 3.1 22:09:06 10° NW 22:14:26 43° WSW 22:15:36 38° SW
Ariane H10 4.3 21:33:25 10° W 22:24:37 64° NNW 22:26:59 52° NE
Resurs 01 Rocket 4.3 22:34:37 15° NW 22:34:37 15° NW 22:35:28 10° NW
ARIANE 5 R/B 4.5 22:38:48 10° W 23:20:19 - E 22:40:04 26° W
ARIANE 5 R/B 4.5 22:38:48 10° W 22:40:03 26° W 22:40:03 26° W
ARIANE 5 R/B 4.4 22:38:49 10° W 23:20:19 - E 22:40:04 26° W
ARIANE 5 R/B 4.5 22:38:48 10° W 23:20:18 - E 22:40:04 26° W
CZ-4C R/B 3.8 22:45:05 10° NNW 22:50:17 46° NNW 22:50:17 46° NNW
